TimePST,TemperatureF,Dew PointF,Humidity,Sea Level PressureIn,VisibilityMPH,Wind Direction,Wind SpeedMPH,Gust SpeedMPH,PrecipitationIn,Events,Conditions,WindDirDegrees,DateUTC
12:15 AM,37.4,35.6,93,30.19,10.0,Calm,Calm,-,N/A,,Mostly Cloudy,0,2014-02-14 08:15:00
12:35 AM,39.2,35.6,87,30.19,10.0,Calm,Calm,-,N/A,,Scattered Clouds,0,2014-02-14 08:35:00
12:55 AM,37.4,33.8,87,30.19,10.0,West,4.6,-,N/A,,Scattered Clouds,270,2014-02-14 08:55:00
1:15 AM,35.6,33.8,93,30.18,10.0,SSE,4.6,-,N/A,,Scattered Clouds,150,2014-02-14 09:15:00
1:35 AM,41.0,35.6,81,30.17,10.0,South,3.5,-,N/A,,Clear,170,2014-02-14 09:35:00
1:55 AM,39.2,33.8,81,30.18,10.0,SSW,4.6,-,N/A,,Clear,200,2014-02-14 09:55:00
2:15 AM,39.2,33.8,81,30.17,10.0,Calm,Calm,-,N/A,,Clear,0,2014-02-14 10:15:00
2:35 AM,41.0,33.8,76,30.16,10.0,Calm,Calm,-,N/A,,Clear,0,2014-02-14 10:35:00
2:55 AM,37.4,33.8,87,30.16,10.0,NNE,6.9,-,N/A,,Clear,20,2014-02-14 10:55:00
3:15 AM,39.2,33.8,81,30.15,10.0,North,5.8,-,N/A,,Clear,360,2014-02-14 11:15:00
3:35 AM,37.4,33.8,87,30.15,10.0,NNE,6.9,-,N/A,,Clear,20,2014-02-14 11:35:00
3:55 AM,39.2,33.8,81,30.16,10.0,ENE,4.6,11.5,N/A,,Clear,60,2014-02-14 11:55:00
4:15 AM,37.4,33.8,87,30.15,10.0,ENE,5.8,-,N/A,,Clear,60,2014-02-14 12:15:00
4:35 AM,39.2,33.8,81,30.14,10.0,North,3.5,-,N/A,,Clear,360,2014-02-14 12:35:00
4:55 AM,32.0,32.0,100,30.14,10.0,Calm,Calm,-,N/A,,Clear,0,2014-02-14 12:55:00
5:15 AM,35.6,32.0,87,30.15,10.0,North,4.6,-,N/A,,Clear,350,2014-02-14 13:15:00
5:35 AM,37.4,32.0,81,30.15,10.0,NNE,5.8,-,N/A,,Clear,30,2014-02-14 13:35:00
6:45 AM,33.8,30.2,87,30.17,10.0,NE,4.6,-,N/A,,Scattered Clouds,40,2014-02-14 14:45:00
7:50 AM,35.6,32.0,87,30.19,10.0,West,4.6,-,N/A,,Scattered Clouds,270,2014-02-14 15:50:00
8:50 AM,37.4,33.8,87,30.20,10.0,NNE,5.8,-,N/A,,Scattered Clouds,20,2014-02-14 16:50:00
9:50 AM,46.4,35.6,66,30.19,10.0,NW,4.6,-,N/A,,Mostly Cloudy,310,2014-02-14 17:50:00
10:50 AM,51.8,24.8,35,30.19,10.0,NE,3.5,-,N/A,,Mostly Cloudy,50,2014-02-14 18:50:00
11:45 AM,55.4,19.4,25,30.19,10.0,SSW,3.5,-,N/A,,Mostly Cloudy,200,2014-02-14 19:45:00
1:50 PM,59.0,24.8,27,30.17,10.0,SW,9.2,18.4,N/A,,Mostly Cloudy,220,2014-02-14 21:50:00
2:45 PM,55.4,23.0,29,30.15,10.0,SSW,3.5,18.4,N/A,,Scattered Clouds,200,2014-02-14 22:45:00
3:45 PM,53.6,19.4,26,30.13,10.0,SSE,9.2,-,N/A,,Scattered Clouds,150,2014-02-14 23:45:00
4:55 PM,51.8,23.0,33,30.12,10.0,SE,8.1,-,N/A,,Clear,140,2014-02-15 00:55:00
5:15 PM,50.0,21.2,32,30.12,10.0,SSE,8.1,-,N/A,,Clear,160,2014-02-15 01:15:00
5:35 PM,46.4,23.0,40,30.13,10.0,SE,8.1,-,N/A,,Clear,140,2014-02-15 01:35:00
5:55 PM,48.2,21.2,34,30.13,10.0,SSE,6.9,23.0,N/A,,Clear,150,2014-02-15 01:55:00
6:15 PM,44.6,23.0,43,30.13,10.0,SE,10.4,18.4,N/A,,Clear,130,2014-02-15 02:15:00
6:35 PM,44.6,23.0,43,30.13,10.0,SSE,9.2,-,N/A,,Clear,150,2014-02-15 02:35:00
6:55 PM,44.6,23.0,43,30.13,10.0,ESE,15.0,-,N/A,,Clear,120,2014-02-15 02:55:00
7:15 PM,46.4,23.0,40,30.13,10.0,SE,9.2,-,N/A,,Clear,140,2014-02-15 03:15:00
7:35 PM,46.4,21.2,37,30.13,10.0,SE,11.5,16.1,N/A,,Clear,140,2014-02-15 03:35:00
7:55 PM,44.6,21.2,39,30.13,10.0,SE,5.8,-,N/A,,Clear,130,2014-02-15 03:55:00
8:15 PM,46.4,19.4,34,30.12,10.0,SE,11.5,19.6,N/A,,Clear,130,2014-02-15 04:15:00
8:35 PM,44.6,19.4,37,30.11,10.0,SE,11.5,-,N/A,,Clear,130,2014-02-15 04:35:00
8:55 PM,44.6,19.4,37,30.12,10.0,NE,6.9,-,N/A,,Clear,40,2014-02-15 04:55:00
9:15 PM,41.0,23.0,49,30.11,10.0,NNE,9.2,-,N/A,,Clear,20,2014-02-15 05:15:00
9:35 PM,41.0,23.0,49,30.12,10.0,North,5.8,-,N/A,,Clear,360,2014-02-15 05:35:00
9:55 PM,41.0,21.2,45,30.11,10.0,NE,5.8,-,N/A,,Clear,40,2014-02-15 05:55:00
10:15 PM,41.0,21.2,45,30.11,10.0,NNW,6.9,-,N/A,,Clear,340,2014-02-15 06:15:00
10:35 PM,41.0,21.2,45,30.12,10.0,NNW,4.6,-,N/A,,Clear,340,2014-02-15 06:35:00
10:55 PM,41.0,19.4,42,30.11,10.0,Calm,Calm,-,N/A,,Clear,0,2014-02-15 06:55:00
11:15 PM,41.0,19.4,42,30.12,10.0,NNE,5.8,-,N/A,,Clear,20,2014-02-15 07:15:00
11:35 PM,41.0,19.4,42,30.11,10.0,NE,6.9,-,N/A,,Clear,50,2014-02-15 07:35:00
11:55 PM,37.4,19.4,48,30.11,10.0,Calm,Calm,-,N/A,,Clear,0,2014-02-15 07:55:00